Reflectivity
-20 -20 -20 -20 -20 -20 -20 -20 -20 -20 -20 -20 -20 -20 -20 -20 -20 -20 -20 -20 -20 -20
-20 -20 -20 -20 -20 -20 -20 -20 -20 -20 -20 -20 -20 -20 -20 -20 -20 -20 -20 -20 -20 -20
-20 -20 -20 -20 -20 -20 -20 -20 -20 -20 -20 -19 -19 -20 -20 -20 -20 -20 -20 -20 -20 -20
-20 -20 -20 -20 -20 -20 -20 -20 -20 -20 -18 -20 -20 -20 -20 -20 -20 -20 -20 -20 -20 -20
-20 -20 -19 -9 -1 6 -20 -20 12 -20 -20 -4 -20 -20 -20 -20 -20 -20 -20 -20 -20 2
-20 -20 -17 1 1 -3 -4 -1 12 13 -14 15 -16 -20 -20 -20 -20 -20 -20 -20 -20 -20
-20 -20 1 11 4 -6 -12 23 -2 11 28 2 -20 -20 -20 -20 -20 -20 -20 2 6 -19
-9 5 -4 -10 26 24 34 19 28 17 13 -8 -20 -20 -20 -20 -20 -20 -20 -18 -18 -20
-11 5 40 35 33 24 20 17 11 -19 -12 4 -7 -20 -20 -20 -20 -20 -20 -13 -16 -20
-6 32 36 27 11 1 -1 -19 -8 -6 2 6 -20 -20 -20 -20 -20 -20 -20 -20 -20 -20
2 14 24 9 24 9 -15 -20 -3 2 -4 -20 -20 -20 -20 -20 -20 -20 -20 -20 -9 -20
17 23 25 -20 3 15 29 19 22 -15 -20 -20 -20 -20 -20 -20 -20 -20 -20 -20 -6 -19
12 16 38 8 17 29 25 21 -2 -20 -20 -17 -12 -20 -20 -20 -20 -20 -2 12 -20 2
7 21 23 29 24 30 25 19 -20 -20 -19 -2 -20 -20 -20 -20 -20 -12 -16 -20 -20 -20
Wind_Speed
6 4 4 5 4 4 4 4 4 3 2 2 3 2 3 2 2 3 2 2 2 1
5 6 5 5 5 4 5 4 5 4 3 2 2 2 2 1 2 2 1 1 2 1
5 6 6 5 5 6 5 5 5 4 4 2 2 1 2 0 2 0 1 1 1 2
6 5 6 5 5 6 6 6 5 5 4 3 3 3 3 2 2 3 1 1 2 1
6 5 5 5 5 6 6 5 5 4 4 4 1 1 1 1 2 1 2 2 2 2
6 5 5 5 5 5 6 6 3 4 3 2 1 1 0 4 3 2 2 1 1 3
5 5 5 4 5 5 5 5 4 3 3 1 1 1 2 2 1 3 1 0 1 2
6 6 5 4 5 5 5 6 5 5 4 2 1 3 4 3 2 2 1 2 2 3
7 7 7 7 8 6 5 5 5 4 4 3 2 4 2 1 2 1 2 1 2 2
9 8 6 6 6 6 5 5 4 4 4 4 5 3 1 0 3 1 3 1 0 2
8 8 9 7 7 6 5 5 4 5 4 4 4 2 1 1 2 2 2 1 1 2
9 9 9 9 8 6 5 4 3 4 4 3 4 4 1 3 4 2 1 1 1 2
8 7 8 7 7 4 4 6 4 4 4 3 4 5 2 1 3 0 1 2 2 2
7 8 8 7 4 5 4 5 4 4 4 4 3 4 3 2 4 1 1 2 3 3
Wind_Direction
186 164 185 171 166 164 160 145 131 108 122 123 112 129 106 110 103 78 66 57 54 54
173 161 156 152 140 148 123 125 127 138 148 141 105 89 102 111 103 66 90 327 62 25
170 153 146 144 143 134 128 118 136 142 139 147 140 148 86 289 99 237 218 161 112 295
157 149 143 150 154 141 138 138 145 155 156 172 202 180 166 195 205 227 193 179 152 228
141 149 157 158 148 138 136 128 133 148 143 141 154 270 85 161 225 307 266 13 359 299
146 151 143 144 131 116 109 104 118 120 133 125 109 345 352 51 7 248 256 266 302 347
142 124 110 117 110 111 107 118 143 140 118 167 153 92 76 102 306 319 255 356 26 58
129 126 128 157 151 153 166 162 169 158 160 146 189 76 27 1 259 269 291 77 104 94
150 164 178 177 170 149 169 153 153 160 157 170 135 83 60 350 283 305 54 43 117 132
173 171 177 182 173 164 159 144 160 167 179 162 127 93 32 335 319 24 73 72 134 180
187 185 172 164 165 145 147 173 186 182 156 141 119 114 308 329 57 34 77 101 201 209
193 187 171 175 165 154 169 181 174 142 139 164 143 151 85 38 52 42 96 265 198 179
181 181 182 152 135 152 166 180 134 135 147 140 146 130 106 72 104 53 216 207 129 93
155 153 137 138 150 168 149 125 138 143 145 160 155 154 138 216 122 168 243 184 107 75